, TX

(GMT )
Ingleside

Weather History for KTFP - October, 2012

Change the Weather History Date:

Thursday, October 11, 2012

  Actual Average Record
Temperature  
Mean Temperature 83 °F -  
Max Temperature 88 °F - - ()
Min Temperature 78 °F - - ()
Cooling Degree Days 18    
Growing Degree Days 33 (Base 50)    
Moisture  
Dew Point 75 °F    
Average Humidity 78    
Maximum Humidity 90    
Minimum Humidity 62    
Precipitation  
Precipitation 0.02 in - - ()
Sea Level Pressure  
Sea Level Pressure 30.06 in    
Wind  
Wind Speed 11 mph (SE)    
Max Wind Speed 22 mph    
Max Gust Speed 28 mph    
Visibility 10 miles    
Events Rain    
Averages and records for this station are not official NWS values.
T = Trace of Precipitation, MM = Missing Value Source: NWS Daily Summary

Daily Weather History Graph

Daily Weather History Graph

Search for Another Location

Airport or City:

Trip Planner

Search our weather history database for the weather conditions in past years. The results will help you decide how hot, cold, wet, or windy it might be!

Date:

Astronomy

Oct. 11, 2012 Rise Set
Actual Time 7:27 AM CDT 7:03 PM CDT
Civil Twilight 7:03 AM CDT 7:26 PM CDT
Nautical Twilight 6:36 AM CDT 7:53 PM CDT
Astronomical Twilight 6:09 AM CDT 8:21 PM CDT
Moon 3:27 AM CDT (10/11) 4:23 PM CDT (10/11)
Length of Visible Light 12h 23m
Length of Day
11h 36m
Waning Crescent, 18% of the Moon is Illuminated
Oct 11
Waning Crescent
Oct 15
New
Oct 21
First Quarter
Oct 29
Full
Nov 6
Last Quarter

Hourly Weather History & Observations

Time (CDT) Temp. Heat Index Dew Point Humidity Pressure Visibility Wind Dir Wind Speed Gust Speed Precip Events Conditions
12:15 AM 79.5 °F - 74.8 °F 86% 30.05 in 10.0 mi SE 8.1 mph - N/A   Clear
12:35 AM 79.2 °F - 74.5 °F 86% 30.04 in 10.0 mi SE 6.9 mph - N/A   Clear
1:35 AM 79.2 °F - 75.6 °F 89% 30.04 in 10.0 mi SE 8.1 mph - N/A   Scattered Clouds
1:55 AM 79.7 °F - 75.7 °F 88% 30.03 in 10.0 mi SE 9.2 mph - N/A   Scattered Clouds
2:35 AM 79.9 °F - 76.1 °F 88% 30.03 in 10.0 mi SSE 6.9 mph - N/A   Scattered Clouds
2:55 AM 80.2 °F 85.8 °F 76.1 °F 87% 30.03 in 10.0 mi SE 8.1 mph - N/A   Scattered Clouds
3:15 AM 79.9 °F - 75.7 °F 87% 30.03 in 10.0 mi SE 8.1 mph - N/A   Scattered Clouds
3:35 AM 79.9 °F - 75.9 °F 88% 30.03 in 10.0 mi SE 6.9 mph - N/A   Scattered Clouds
3:55 AM 80.2 °F 85.8 °F 76.1 °F 87% 30.03 in 10.0 mi SE 6.9 mph - N/A   Mostly Cloudy
4:15 AM 79.9 °F - 76.1 °F 88% 30.02 in 10.0 mi SE 6.9 mph - N/A   Scattered Clouds
4:35 AM 79.9 °F - 76.1 °F 88% 30.02 in 10.0 mi SSE 6.9 mph - N/A   Scattered Clouds
4:55 AM 79.9 °F - 75.9 °F 88% 30.02 in 10.0 mi SE 6.9 mph - N/A   Scattered Clouds
5:15 AM 79.5 °F - 75.6 °F 88% 30.03 in 10.0 mi SE 5.8 mph - N/A   Scattered Clouds
5:35 AM 79.0 °F - 75.4 °F 89% 30.03 in 10.0 mi SE 5.8 mph - N/A   Clear
5:55 AM 78.6 °F - 75.4 °F 90% 30.03 in 10.0 mi SE 5.8 mph - N/A   Scattered Clouds
6:15 AM 79.0 °F - 75.9 °F 90% 30.04 in 10.0 mi ESE 8.1 mph - N/A   Mostly Cloudy
6:35 AM 79.3 °F - 76.1 °F 90% 30.04 in 10.0 mi SE 8.1 mph - N/A   Scattered Clouds
7:35 AM 79.2 °F - 75.4 °F 88% 30.06 in 10.0 mi SE 6.9 mph - N/A   Mostly Cloudy
7:55 AM 79.2 °F - 75.9 °F 90% 30.06 in 7.0 mi ESE 5.8 mph - 0.01 in   Scattered Clouds
8:15 AM 79.7 °F - 76.5 °F 90% 30.07 in 10.0 mi SE 8.1 mph - N/A   Clear
8:35 AM 80.4 °F 86.6 °F 76.8 °F 89% 30.07 in 10.0 mi SE 8.1 mph - N/A   Clear
8:55 AM 81.3 °F 88.5 °F 76.6 °F 86% 30.08 in 7.0 mi SSE 15.0 mph 19.6 mph 0.01 in Rain Rain
9:15 AM 79.5 °F - 75.0 °F 86% 30.09 in 10.0 mi SE 8.1 mph - N/A   Mostly Cloudy
9:35 AM 81.9 °F 90.2 °F 77.5 °F 87% 30.10 in 10.0 mi South 9.2 mph - N/A   Mostly Cloudy
9:55 AM 81.0 °F 86.5 °F 74.7 °F 81% 30.10 in 10.0 mi SSE 5.8 mph - N/A   Overcast
10:15 AM 82.0 °F 89.4 °F 75.9 °F 82% 30.11 in 10.0 mi SE 10.4 mph - N/A   Overcast
10:35 AM 84.2 °F 94.1 °F 77.2 °F 79% 30.11 in 10.0 mi SE 17.3 mph - N/A   Overcast
10:55 AM 86.2 °F 96.9 °F 76.5 °F 73% 30.11 in 10.0 mi SE 18.4 mph - N/A   Mostly Cloudy
11:15 AM 85.6 °F 94.6 °F 75.4 °F 71% 30.11 in 10.0 mi SSE 13.8 mph 25.3 mph N/A   Mostly Cloudy
11:35 AM 85.1 °F 93.7 °F 75.2 °F 72% 30.11 in 10.0 mi SE 20.7 mph - N/A   Mostly Cloudy
11:55 AM 87.3 °F 97.2 °F 75.6 °F 68% 30.11 in 10.0 mi SSE 21.9 mph 26.5 mph N/A   Scattered Clouds
12:15 PM 87.1 °F 96.3 °F 75.0 °F 67% 30.11 in 10.0 mi SSE 17.3 mph 24.2 mph N/A   Scattered Clouds
12:35 PM 85.8 °F 94.6 °F 75.0 °F 70% 30.10 in 10.0 mi SE 16.1 mph - N/A   Scattered Clouds
12:55 PM 88.0 °F 98.0 °F 75.4 °F 66% 30.09 in 10.0 mi SE 20.7 mph 27.6 mph N/A   Scattered Clouds
1:15 PM 88.0 °F 97.5 °F 74.7 °F 65% 30.09 in 10.0 mi SSE 21.9 mph 27.6 mph N/A   Scattered Clouds
1:35 PM 88.2 °F 97.4 °F 74.5 °F 64% 30.09 in 10.0 mi SSE 20.7 mph 27.6 mph N/A   Clear
1:55 PM 88.5 °F 97.3 °F 74.1 °F 62% 30.07 in 10.0 mi SSE 21.9 mph 27.6 mph N/A   Clear
2:15 PM 88.2 °F 96.9 °F 74.1 °F 63% 30.07 in 10.0 mi SE 19.6 mph 26.5 mph N/A   Clear
2:35 PM 88.5 °F 97.3 °F 74.1 °F 62% 30.06 in 10.0 mi SSE 15.0 mph 25.3 mph N/A   Scattered Clouds
2:55 PM 88.0 °F 96.5 °F 73.9 °F 63% 30.07 in 10.0 mi SSE 18.4 mph 25.3 mph N/A   Scattered Clouds
3:15 PM 88.0 °F 96.5 °F 74.1 °F 63% 30.07 in 10.0 mi SE 19.6 mph 26.5 mph N/A   Scattered Clouds
3:35 PM 87.8 °F 95.6 °F 73.4 °F 62% 30.06 in 10.0 mi SSE 20.7 mph 26.5 mph N/A   Scattered Clouds
3:55 PM 86.7 °F 94.1 °F 73.4 °F 64% 30.06 in 10.0 mi SE 19.6 mph 24.2 mph N/A   Scattered Clouds
4:35 PM 86.5 °F 93.8 °F 73.2 °F 64% 30.05 in 10.0 mi SE 17.3 mph 25.3 mph N/A   Scattered Clouds
4:55 PM 86.7 °F 93.7 °F 72.7 °F 63% 30.05 in 10.0 mi SE 19.6 mph 25.3 mph N/A   Clear
5:35 PM 85.8 °F 92.6 °F 72.9 °F 65% 30.04 in 10.0 mi SE 18.4 mph 24.2 mph N/A   Clear
6:15 PM 84.2 °F 90.3 °F 72.5 °F 68% 30.04 in 10.0 mi SE 17.3 mph 23.0 mph N/A   Clear
6:35 PM 83.3 °F 89.0 °F 72.7 °F 70% 30.04 in 10.0 mi ESE 16.1 mph 19.6 mph N/A   Clear
6:55 PM 82.2 °F 87.8 °F 73.0 °F 74% 30.04 in 10.0 mi SE 15.0 mph 21.9 mph N/A   Clear
7:15 PM 81.3 °F 86.1 °F 72.9 °F 75% 30.05 in 10.0 mi ESE 10.4 mph 17.3 mph N/A   Clear
7:35 PM 80.8 °F 85.4 °F 73.0 °F 77% 30.05 in 10.0 mi North - - N/A   Clear
8:15 PM 80.2 °F 84.7 °F 73.4 °F 80% 30.06 in 10.0 mi SE 9.2 mph - N/A   Clear
8:55 PM 79.9 °F - 73.6 °F 81% 30.07 in 10.0 mi ESE 11.5 mph - N/A   Clear
9:15 PM 79.7 °F - 73.0 °F 80% 30.08 in 10.0 mi ESE 10.4 mph - N/A   Clear
9:55 PM 79.9 °F - 73.4 °F 80% 30.09 in 10.0 mi ESE 10.4 mph - N/A   Clear
10:15 PM 79.7 °F - 72.9 °F 80% 30.09 in 10.0 mi ESE 11.5 mph - N/A   Clear
10:35 PM 79.7 °F - 72.5 °F 79% 30.09 in 10.0 mi ESE 11.5 mph - N/A   Clear
11:15 PM 79.2 °F - 73.0 °F 81% 30.09 in 10.0 mi SE 11.5 mph - N/A   Clear
11:35 PM 79.3 °F - 72.7 °F 80% 30.09 in 10.0 mi ESE 9.2 mph - N/A   Clear
11:55 PM 79.0 °F - 72.9 °F 81% 30.09 in 10.0 mi SE 10.4 mph - N/A   Clear